www.pogodaiklimat.ru

Погода и климат >> Архив погоды >> Австрия >> Feistritz ob Bleiburg


ПОГОДА в Feistritz ob Bleiburg

  • Прогноз погоды в Feistritz ob Bleiburg
  • Монитор погоды в Feistritz ob Bleiburg
  • Климат города

АРХИВ ПОГОДЫ в Feistritz ob Bleiburg

Время (UTC), дата Ветер
(напр.,м/с)
 
Видим.   Явления Облачность Т
(С)
Тd
(С)
f
(%)
Тe
(С)
Тes
(С)
Комфортность P
(гПа)
Po
(гПа)
Тmin
(С)
Tmax
(С)
R
(мм)
R24
(мм)
S
(см)
22 11.12 В 1 н/о ливневой дождь н/о +7.1 +5.3 88 +6 +6 997.0 935.1 0.1
23 11.12 штиль 0 н/о н/о +8.2 +5.3 82 +7 +7 996.1 934.5 0.0
00 12.12 Ю 2
{16}
н/о {ливн. осадки} н/о +9.0 +5.1 77 +7 +7 995.1 933.7 3
01 12.12 В 1 н/о н/о +7.2 +3.8 79 +6 +6 997.1 935.2 0.0
02 12.12 СВ 5
{13}
н/о осадки н/о +8.6 +5.6 81 +5 +5 997.3 935.7 0.1
03 12.12 Ю 3
{19}
н/о осадки н/о +13.6 +4.9 56 +13 +13 996.2 935.7 0.6
04 12.12 СЗ 2
{21}
н/о осадки н/о +12.3 +5.4 63 +12 +12 997.9 937.0 0.7
05 12.12 В 2 н/о осадки н/о +7.6 +6.5 93 +5 +5 1000.7 938.7 2
06 12.12 ЮВ 1
{21}
10 км дождь 10/10 300 м
[Frnb]
+6.7 +6.1 96 +6 +6 1002.4 940.1 +4.7 +14.3 8 4
07 12.12 З 2 н/о н/о +7.7 +7.2 97 +5 +5 1003.6 941.4 7
08 12.12 З 2 н/о осадки н/о +7.0 +6.6 97 +5 +5 1005.7 943.2 4
09 12.12 З 1 н/о осадки н/о +7.4 +5.8 90 +6 +6 1006.4 944.0 12
10 12.12 ЮЗ 4 н/о осадки н/о +8.8 +4.2 73 +6 +6 1006.9 944.7 0.1
11 12.12 З 6 н/о ливневой дождь н/о +8.6 +3.4 70 +5 +5 1007.5 945.2 0.0
12 12.12 З 4 н/о {ливн. осадки} н/о +9.0 +3.5 68 +6 +6 1007.4 945.2 12
13 12.12 З 3 н/о в посл. час осадки н/о +8.3 +4.0 74 +6 +6 1008.0 945.6 0.0
14 12.12 З 2 н/о в посл. час осадки н/о +8.1 +4.3 77 +6 +6 1008.6 946.2 0.1
15 12.12 З 2 н/о {ливн. осадки} н/о +7.9 +3.7 75 +6 +6 1009.4 946.9 0.1
16 12.12 З 3 н/о н/о +8.8 +2.5 65 +7 +7 1009.8 947.4
17 12.12 З 4 н/о н/о +9.4 +1.7 59 +7 +7 1010.0 947.7
18 12.12 Ю 2 20 км {дождь} 10/5 1000 м
[Sc As trans]
+6.5 +3.6 82 +4 +4 1011.8 948.8 +5.7 +10.1 12
19 12.12 ЮВ 2 н/о н/о +6.1 +3.4 83 +4 +4 1012.2 949.1
20 12.12 В 2 н/о н/о +6.0 +3.4 83 +4 +4 1013.0 949.8
21 12.12 В 4 н/о н/о +5.6 +3.9 89 +2 +2 1013.4 950.1
22 12.12 В 4 н/о н/о +5.3 +4.1 92 +1 +1 1014.4 951.0
23 12.12 В 3 н/о осадки н/о +4.9 +3.8 93 +1 +1 1015.1 951.6 0.1
00 13.12 В 4 н/о осадки н/о +3.5 +2.2 91 -1 -1 1017.1 953.1 0.6
01 13.12 СВ 2 н/о осадки н/о +0.7 -0.1 94 -3 -3 1019.2 954.4 3
02 13.12 Ю 2 н/о осадки н/о +0.5 -0.2 95 -3 -3 1020.1 955.2 3
03 13.12 ЮВ 1 н/о осадки н/о +0.5 -0.3 94 -2 -2 1020.0 955.1 9
04 13.12 В 2 н/о осадки н/о +0.3 -0.2 96 -3 -3 1020.3 955.3 1
05 13.12 ЮВ 1 н/о осадки н/о +0.2 -0.3 96 -2 -2 1020.7 955.7 0.3
06 13.12 штиль 0 4000 м слабый снег {дождь} 10/10 50 м
[Frnb]
+0.2 -0.1 98 -1 -1 1021.0 956.0 +0.2 +8.3 11 4
07 13.12 С 1 н/о н/о +0.1 -0.4 96 -2 -2 1021.7 956.6
08 13.12 В 1 н/о н/о +0.3 -0.3 96 -2 -2 1021.9 956.8 0.0
09 13.12 В 3 н/о н/о +0.4 -0.4 94 -4 -4 1021.4 956.4 0.0
10 13.12 СВ 2 н/о н/о +0.6 -0.2 94 -3 -3 1021.6 956.6 0.0
11 13.12 В 1 н/о осадки н/о +0.8 -0.1 94 -1 -1 1020.6 955.7 0.0
12 13.12 З 2 4000 м снежные кристаллы 9/6 50 м
[Frnb As trans]
+1.3 +0.3 93 -2 -2 1019.9 955.2 0.0
13 13.12 ЮЗ 1 н/о н/о +0.9 -0.3 92 -1 -1 1018.9 954.2
14 13.12 ЮЗ 1 н/о н/о +1.1 -0.1 92 -1 -1 1018.7 954.0
15 13.12 штиль 0 н/о н/о +0.2 -0.4 96 -1 -1 1018.1 953.3
16 13.12 штиль 0 н/о н/о -1.6 -2.4 94 -3 -3 1017.4 952.2
17 13.12 З 1 н/о н/о -0.9 -1.2 98 -3 -3 1016.9 951.9
18 13.12 ЮВ 2 2000 м дымка 10/10 50 м
[Frnb]
-0.7 -0.8 99 -5 -5 1016.4 951.5 -1.6 +1.5 0.0
19 13.12 штиль 0 н/о н/о -0.6 -1.1 96 -2 -2 1015.9 951.0
20 13.12 СЗ 1 н/о н/о -0.5 -1.1 96 -3 -3 1015.2 950.4
21 13.12 штиль 0 н/о н/о -0.6 -1.2 96 -2 -2 1014.1 949.3
22 13.12 С 1 н/о н/о -0.7 -1.6 94 -3 -3 1013.4 948.6
23 13.12 СЗ 1 н/о н/о -1.0 -1.9 94 -3 -3 1012.3 947.5
00 14.12 З 1 н/о н/о -1.2 -2.0 94 -3 -3 1011.3 946.6
01 14.12 З 2 н/о н/о -1.1 -2.0 94 -5 -5 1010.1 945.5
02 14.12 З 2 н/о н/о -1.1 -2.0 94 -5 -5 1009.7 945.1
03 14.12 СЗ 1 н/о н/о -1.3 -2.3 93 -4 -4 1008.4 943.8
04 14.12 ЮЗ 1 н/о н/о -1.6 -2.4 94 -4 -4 1008.0 943.4
05 14.12 ЮВ 1 н/о н/о -1.9 -2.7 94 -4 -4 1007.6 942.9
06 14.12 З 1 15 км 10/10 300 м
[]
-2.0 -2.4 97 -4 -4 1007.7 943.0 -2.1 -0.2 2
07 14.12 ЮВ 1 н/о н/о -1.5 -2.2 95 -4 -4 1007.5 942.9
08 14.12 ЮЗ 1 н/о н/о -0.8 -1.8 93 -3 -3 1007.5 943.1
09 14.12 ЮВ 1 н/о н/о +0.1 -1.0 92 -2 -2 1007.5 943.3
10 14.12 ЮЗ 1 н/о н/о +0.7 -0.5 92 -1 -1 1007.4 943.4 0.0
11 14.12 ЮВ 1 н/о н/о +0.6 -0.8 90 -1 -1 1006.2 942.2 0.0
12 14.12 ЮЗ 1 15 км слабый дождь со снегом 9/9 600 м
[Frnb]
+1.1 +0.2 94 -1 -1 1007.0 943.1 0.0
13 14.12 Ю 1 н/о осадки н/о +1.5 +0.5 93 -0 -0 1007.1 943.3 0.1
14 14.12 ЮВ 1 н/о осадки н/о +1.3 +0.4 94 -1 -1 1007.0 943.1 0.6
15 14.12 ЮВ 2 н/о в посл. час осадки н/о +1.2 +0.5 95 -2 -2 1006.5 942.6 0.8
16 14.12 ЮВ 1 н/о н/о +1.3 +0.6 95 -1 -1 1006.3 942.5 0.0
17 14.12 З 1 н/о в посл. час осадки н/о +0.8 +0.3 96 -1 -1 1007.0 943.0 0.0
18 14.12 Ю 1 3000 м дождь со снегом 10/10 100 м
[Frnb]
+1.0 +0.7 98 -1 -1 1006.9 943.0 -2.3 +1.6 2
19 14.12 В 1 н/о в посл. час осадки н/о +0.5 0.0 96 -2 -2 1006.5 942.5 0.1
20 14.12 штиль 0 н/о ливневой дождь н/о +0.6 +0.2 97 -1 -1 1005.3 941.4 0.1
21 14.12 СЗ 1 н/о {ливн. осадки} н/о +0.6 +0.3 98 -2 -2 1004.4 940.5 0.2
22 14.12 штиль 0 н/о н/о +0.5 +0.2 98 -1 -1 1003.6 939.8 0.0
23 14.12 СВ 1 н/о н/о +0.2 -0.1 98 -2 -2 1002.6 938.8 0.0
00 15.12 З 1 н/о осадки {ливн. осадки} н/о +0.1 -0.2 98 -2 -2 1002.0 938.2 0.3
01 15.12 СВ 1 н/о ливневой дождь {осадки} н/о +0.1 -0.1 99 -2 -2 1001.5 937.7 0.1
02 15.12 В 1 н/о осадки н/о +0.1 -0.1 99 -2 -2 1001.1 937.3 0.4
03 15.12 штиль 0 н/о осадки {ливн. осадки} н/о +0.2 -0.1 98 -1 -1 1000.4 936.7 0.9
04 15.12 З 1 н/о осадки н/о 0.0 -0.2 99 -2 -2 1000.3 936.6 0.2
05 15.12 штиль 0 н/о осадки н/о 0.0 -0.3 98 -1 -1 1000.1 936.4 0.5
06 15.12 СЗ 1 3000 м дождь 10/10 200 м
[Frnb]
0.0 0.0 100 -2 -2 1000.8 937.0 0.0 +1.0 1
07 15.12 В 1 н/о осадки н/о +0.1 -0.3 97 -2 -2 1000.8 937.0 0.9
08 15.12 ЮВ 1 н/о осадки н/о +0.3 0.0 98 -2 -2 1001.0 937.3 3
09 15.12 штиль 0 н/о осадки н/о +0.4 0.0 97 -1 -1 1001.4 937.7 5
10 15.12 З 1 н/о осадки н/о +0.4 -0.1 96 -2 -2 1002.4 938.6 2
11 15.12 В 2 н/о осадки н/о +0.9 +0.4 96 -3 -3 1001.8 938.2 2
12 15.12 штиль 0 2000 м дождь 10/9 50 м
[Frnb As trans]
+1.2 +1.0 99 -0 -0 1001.7 938.1 8
13 15.12 ЮВ 1 н/о осадки н/о +1.3 +0.9 97 -1 -1 1001.3 937.8 0.2
14 15.12 СЗ 1 н/о ливневой дождь н/о +1.4 +1.1 98 -1 -1 1001.6 938.1 0.2
15 15.12 Ю 2 н/о осадки {ливн. осадки} н/о +2.0 +1.4 96 -1 -1 1001.6 938.2 1
16 15.12 ЮВ 2 н/о осадки н/о +1.7 +1.1 96 -2 -2 1001.8 938.4 0.5
17 15.12 ЮВ 2 н/о осадки н/о +1.8 +1.1 95 -2 -2 1002.1 938.7 0.7
18 15.12 СВ 1 3000 м дождь 10/10 50 м
[Frnb]
+1.1 +0.9 99 -1 -1 1002.9 939.2 0.0 +2.2 12
19 15.12 ЮЗ 2 н/о осадки н/о +0.8 +0.1 95 -3 -3 1003.0 939.3 2
20 15.12 В 1 н/о осадки н/о +0.5 -0.1 96 -2 -2 1003.4 939.6 0.9
21 15.12 ЮЗ 1 н/о осадки н/о +0.3 -0.2 96 -2 -2 1003.2 939.3 3
22 15.12 СЗ 1 н/о осадки н/о +0.2 -0.2 97 -2 -2 1003.5 939.6 0.1
23 15.12 штиль 0 н/о ливневой дождь {осадки} н/о +0.1 -0.3 97 -1 -1 1003.2 939.3 0.1
00 16.12 З 1 н/о осадки {ливн. осадки} н/о +0.1 -0.2 98 -2 -2 1003.0 939.1 4
01 16.12 СЗ 2 н/о ливневой дождь {осадки} н/о 0.0 -0.3 98 -4 -4 1003.1 939.2 0.0
02 16.12 штиль 0 н/о осадки н/о 0.0 -0.3 98 -1 -1 1003.6 939.6 0.0
03 16.12 СЗ 1 н/о {ливн. осадки} н/о 0.0 -0.2 99 -2 -2 1002.9 939.0 0.0
04 16.12 СЗ 1 н/о н/о 0.0 -0.4 97 -2 -2 1003.6 939.6
05 16.12 СЗ 1 н/о н/о +0.5 -0.4 94 -2 -2 1004.0 940.1
06 16.12 ЮВ 1 15 км {снег, дождь} 10/10 1000 м
[St]
+0.1 -0.2 98 -2 -2 1004.9 940.9 0.0 +1.2 4 1
07 16.12 штиль 0 н/о н/о -0.1 -0.6 96 -1 -1 1005.9 941.8
08 16.12 штиль 0 н/о н/о +0.1 -0.4 96 -1 -1 1006.7 942.6
09 16.12 штиль 0 н/о н/о +0.6 -0.1 95 -1 -1 1007.9 943.8
10 16.12 СВ 1 н/о н/о +0.9 +0.3 96 -1 -1 1008.6 944.5
11 16.12 С 1 н/о н/о +1.0 +0.3 95 -1 -1 1009.0 944.9
12 16.12 В 1 3000 м дымка 10/10 50 м
[St]
+1.4 +0.8 96 -1 -1 1009.5 945.5
13 16.12 СВ 1 н/о н/о +1.5 +0.5 93 -0 -0 1009.7 945.7
14 16.12 В 1 н/о н/о +1.5 +0.5 93 -0 -0 1010.4 946.4
15 16.12 штиль 0 н/о н/о +1.2 -0.1 91 0 0 1011.3 947.1
16 16.12 В 1 н/о н/о +0.8 -0.6 90 -1 -1 1012.1 947.8
17 16.12 штиль 0 н/о н/о +0.7 -0.2 94 -1 -1 1012.8 948.4
18 16.12 С 1 4000 м дымка 10/10 100 м
[St]
+0.6 -0.1 95 -2 -2 1013.7 949.2 -0.2 +1.6
19 16.12 СЗ 1 н/о н/о +0.5 -1.0 90 -2 -2 1014.0 949.5
20 16.12 З 1 н/о н/о +0.3 -0.6 94 -2 -2 1014.8 950.2
21 16.12 СЗ 1 н/о н/о +0.4 -1.1 90 -2 -2 1015.1 950.5
22 16.12 СЗ 1 н/о н/о +0.3 -1.1 90 -2 -2 1015.9 951.2
23 16.12 СЗ 1 н/о н/о +0.1 -0.7 94 -2 -2 1016.9 952.1
00 17.12 З 2 н/о н/о +0.2 -0.7 94 -4 -4 1017.0 952.2
01 17.12 СЗ 3 н/о н/о +0.4 -1.2 89 -4 -4 1017.1 952.4
02 17.12 З 2 н/о н/о +0.2 -1.4 89 -3 -3 1017.9 953.1
03 17.12 З 1 н/о н/о -0.7 -1.8 92 -3 -3 1018.2 953.1
04 17.12 ЮЗ 1 н/о н/о -1.8 -2.5 95 -4 -4 1018.7 953.3
05 17.12 З 1 н/о н/о -1.5 -2.1 96 -4 -4 1019.1 953.8
06 17.12 СЗ 1 4000 м дымка 10/10 50 м
[St]
-0.9 -1.3 97 -3 -3 1019.7 954.5 -2.5 +0.6
07 17.12 СЗ 1 н/о н/о -0.9 -1.9 93 -3 -3 1020.5 955.2
08 17.12 З 1 н/о н/о -0.8 -2.5 88 -3 -3 1021.0 955.7
09 17.12 СЗ 3 н/о н/о -0.8 -3.4 83 -6 -6 1021.8 956.5
10 17.12 СЗ 1 н/о н/о -0.7 -3.3 83 -3 -3 1021.7 956.4
11 17.12 СЗ 2 н/о н/о -0.7 -3.3 83 -4 -4 1021.3 956.0
12 17.12 СЗ 2 10 км 10/10 300 м
[St]
-0.5 -2.7 85 -4 -4 1021.4 956.2
13 17.12 СЗ 2 н/о н/о -0.6 -2.8 85 -4 -4 1021.2 956.0
14 17.12 С 3 н/о н/о -1.0 -3.0 86 -6 -6 1021.9 956.5
15 17.12 С 2 н/о н/о -1.3 -3.2 87 -5 -5 1022.1 956.6
16 17.12 СЗ 1 н/о н/о -1.4 -3.2 88 -4 -4 1022.8 957.3
17 17.12 СЗ 2 н/о н/о -1.7 -3.5 87 -6 -6 1023.6 957.9
18 17.12 С 1 10 км 10/10 300 м
[Sc]
-1.9 -3.1 91 -4 -4 1024.4 958.6 -1.9 -0.4
19 17.12 СЗ 2 н/о н/о -1.8 -3.6 87 -6 -6 1024.5 958.8
20 17.12 З 2 н/о н/о -1.7 -3.5 87 -6 -6 1024.9 959.2
21 17.12 ЮЗ 1 н/о н/о -1.8 -3.6 87 -4 -4 1025.5 959.7
22 17.12 З 1 н/о н/о -1.8 -3.5 88 -4 -4 1025.8 960.0
23 17.12 З 2 н/о н/о -1.9 -3.5 89 -6 -6 1026.0 960.1
00 18.12 З 3 н/о н/о -2.3 -4.0 88 -7 -7 1025.8 959.9
01 18.12 З 3 н/о н/о -2.7 -4.1 90 -8 -8 1026.1 960.0
02 18.12 З 2 н/о н/о -2.9 -4.3 90 -7 -7 1026.1 960.0
03 18.12 СЗ 3 н/о н/о -3.1 -4.4 91 -8 -8 1025.7 959.6
04 18.12 З 3 н/о н/о -3.2 -4.6 90 -9 -9 1025.8 959.6
05 18.12 З 2 н/о н/о -3.4 -4.8 90 -8 -8 1026.0 959.8
06 18.12 З 3 4000 м дымка 10/10 50 м
[St]
-3.4 -4.6 91 -9 -9 1026.3 960.1 -3.5 -1.6
07 18.12 З 2 н/о н/о -3.7 -5.3 89 -8 -8 1026.4 960.1
08 18.12 З 2 н/о н/о -3.5 -5.3 87 -8 -8 1027.0 960.7
09 18.12 З 2 н/о н/о -3.4 -5.4 86 -8 -8 1027.3 961.0
10 18.12 З 1 н/о н/о -3.0 -5.1 85 -5 -5 1027.0 960.8
11 18.12 З 1 н/о н/о -1.9 -4.6 82 -4 -4 1026.3 960.4
12 18.12 С 2 15 км 1/1 300 м
[St Ac lent]
-1.7 -4.2 83 -6 -3 1025.7 959.9
13 18.12 СВ 1 н/о н/о -1.4 -4.2 81 -3 -3 1025.4 959.7
14 18.12 ЮВ 1 н/о н/о -2.2 -4.7 83 -4 -4 1025.8 959.9
15 18.12 штиль 0 н/о н/о -3.3 -5.0 88 -4 -4 1026.4 960.2
16 18.12 Ю 2 н/о н/о -3.3 -5.3 86 -7 -7 1027.0 960.7
17 18.12 Ю 1 н/о н/о -4.6 -6.0 90 -7 -7 1027.7 961.1
18 18.12 штиль 0 30 км 1/1 1500 м
[Sc Ac lent]
-5.0 -6.4 90 -6 -6 1028.4 961.6 -5.6 -0.9
19 18.12 штиль 0 н/о н/о -5.8 -7.2 90 -7 -7 1029.4 962.4
20 18.12 штиль 0 н/о н/о -6.2 -7.5 90 -7 -7 1030.3 963.1
21 18.12 ЮВ 1 н/о н/о -6.4 -7.8 90 -9 -9 1030.8 963.5

 

Местоположение метеостанции Feistritz ob Bleiburg (Австрия): широта 46.57 долгота 14.77 высота над уровнем моря 527 м.

В архиве по умолчанию представлена погода в Feistritz ob Bleiburg за последнюю неделю. Архивные данные за месяц целиком и за предыдущие месяцы, начиная с января 2011 года, Вы можете получить, выбрав интересующий диапазон дат из раскрывающегося списка и нажав кнопку "Ввод!".

Внимание! Время в таблицах - всемирное. Для получения местного времени необходимо прибавить поправку, которая в Feistritz ob Bleiburg равна 1 ч.

Смотрите также архив погоды в соседних городах и на ближайших метеорологических станциях:

Погода в Eisenkappel-Vellach (Австрия) (16 км)
Погода в St. Andrae I.L. (Австрия) (23 км)
Погода в Slovenj Gradec (Словения) (29 км)
Погода в Klagenfurt Flughafen (Австрия) (35 км)
Погода в Klagenfurt Flughafen (Австрия) (35 км)
Погода в Preitenegg (Австрия) (42 км)
Погода в Deutschlandsberg (Австрия) (45 км)
Погода в Ljubljana (Словения) (45 км)
Погода в Poertschach (Австрия) (46 км)
Погода в Lesce (Словения) (50 км)

Пояснения к столбцам:

Ветер - указаны скорость ветра в м/с - средняя за 10 мин, порывы в срок и между сроками (в фигурных скобках) и направление, откуда дует ветер: С - северный, СВ - северо-восточный, В - восточный, ЮВ - юго-восточный, Ю - южный, ЮЗ - юго-западный, З - западный, СЗ - северо-западный.
Видимость - горизонтальная дальность видимости в метрах или километрах. При видимости от 1 до 10 км при отсутствии осадков обычно наблюдается дымка, при ухудшении видимости до 1 км и менее - туман. В сухую погоду видимость может ухудшаться дымом, пылью или мглою.
Явления - указаны атмосферные явления, наблюдавшиеся в срок или в последний час перед сроком; фигурными скобками обозначены явления, наблюдавшиеся между сроками (за 1-3 часа до срока); квадратными скобками обозначены град или гололедные отложения с указанием их диаметра в мм.
Облачность - указаны через наклонную черту общая и нижняя облачность в баллах и высота нижней границы облаков в метрах; квадратными скобками обозначены формы облаков: Ci - перистые, Cs - перисто-слоистые, Cc - перисто-кучевые, Ac - высококучевые, As - высокослоистые, Sc - слоисто-кучевые, Ns - слоисто-дождевые, Cu - кучевые, Cb - кучево-дождевые. Подробнее классификацию облаков см. в Атласе облаков (PDF).
T - Температура воздуха - температура, измеренная на высоте 2 м над землей.
Td - Температура точки росы - температура, при понижении до которой содержащийся в воздухе водяной пар достигнет насыщения.
f - Относительная влажность воздуха - влажноcть воздуха, измеренная на высоте 2 м над землей.
Te - Эффективная температура - температура, которую ощущает одетый по сезону человек в тени. Характеристика душности погоды. При расчете учитывается влияние влажности воздуха и скорости ветра на теплоощущения человека.
Tes - Эффективная температура на солнце - температура, которую ощущает человек, с поправкой на солнечный нагрев. Характеристика знойности погоды. Зависит от высоты солнца над горизонтом, облачности и скорости ветра. Ночью, в пасмурную погоду, а также при ветре 12 м/с и более поправка равна нулю.
P - Атмосферное давление - приведенное к уровню моря атмосферное давление.
Po - Атмосферное давление - измеренное на уровне метеостанции атмосферное давление.
Tmin - Минимальная температура - минимум температуры воздуха на высоте 2 м над землей.
Tmax - Максимальная температура - максимум температуры воздуха на высоте 2 м над землей.
R - Количество осадков - Количество выпавших осадков за период времени, мм. При наведении курсора мыши на число - период времени, за который выпало указанное количество осадков.
R24 - Количество осадков - Количество выпавших осадков за 24 часа, мм.
S - Снежный покров - Высота снежного покрова, см. При наведении курсора мыши на число - состояние снежного покрова и степень покрытия местности в баллах.